"Pseudo-MPEC" for ZTF02s2

Created 2019 Feb 15 23:18:17 UT using Find_Orb

Click here for an explanation of pseudo-MPECs

 
 Astrometry: 
     ZTF02s2  C2019 02 10.38528609 55 31.15 +22 36 43.8 Duplicat!18.28RUNEOCPI41
     ZTF02s2  C2019 02 10.38528609 55 31.16 +22 36 43.4 Duplicat!18.27RUNEOCPI41
     ZTF02s2  C2019 02 10.38563309 55 29.86 +22 36 06.9 Duplicat!18.28RUNEOCPI41
     ZTF02s2  C2019 02 10.38563309 55 29.87 +22 36 06.5 Duplicat!18.27RUNEOCPI41
     ZTF02s2  C2019 02 10.39111209 55 08.70 +22 26 05.1    ~2E3I 18.23RUNEOCPI41
     ZTF02s2  C2019 02 10.39145909 55 07.36 +22 25 27.0    ~2E3I 18.23RUNEOCPI41
     ZTF02s2  C2019 02 10.39691509 54 46.42 +22 15 24.7    ~2E3I 17.97RUNEOCPI41
     ZTF02s2  C2019 02 10.39726209 54 45.12 +22 14 47.0    ~2E3I 17.97RUNEOCPI41
     ZTF02s2  C2019 02 10.39981309 54 35.58 +22 09 59.2    ~2AL3 18.27RUNEOCPI41
     ZTF02s2  C2019 02 10.40015909 54 34.26 +22 09 22.2    ~2AL3 18.27RUNEOCPI41
     ZTF02s2  C2019 02 10.40270409 54 24.26 +22 04 44.8    ~2E3I 18.04RUNEOCPI41
     ZTF02s2  C2019 02 10.40305209 54 22.92 +22 04 06.3    ~2E3I 18.04RUNEOCPI41
     ZTF02s2  C2019 02 10.40848209 54 02.12 +21 54 02.7    ~2E3I 18.07RUNEOCPI41
     ZTF02s2  C2019 02 10.40882909 54 00.69 +21 53 24.6    ~2E3I 18.07RUNEOCPI41
     ZTF02s2  C2019 02 10.41714009 53 28.70 +21 37 53.5    ~2E3I 18.72RUNEOCPI41
     ZTF02s2  C2019 02 10.41748709 53 27.34 +21 37 16.4    ~2E3I 18.72RUNEOCPI41

Station data:
(I41) Palomar Mountain--ZTF  (N33.357340 W116.859780)  US/California. 1.2-m
   f/2.44 Oschin Schmidt + CCD.

Orbital elements:  ZTF02s2
   Perihelion 2019 Jan 13.304258 TT =  7:18:07 (JD 2458496.804258)
Epoch 2019 Feb 10.0 TT = JDT 2458524.5   Earth MOID: 0.0114   AutoNEOCP
M  22.46095888                      (J2000 ecliptic)
n   0.81098961     Peri.  149.68695
a   1.13883075     Node   321.37571
e   0.1379540      Incl.   21.13556
P   1.22/443.89d   H   27.8     G   0.15   q 0.98172446  Q 1.29593703
12 of 16 observations 2019 Feb. 10 (38.0 min); mean residual 2".58
Residuals in arcseconds: 
190210 I41( .00   .00 )   190210 I41  .94-  .75+    190210 I41  2.0+  2.9+    
190210 I41( .00   .00 )   190210 I41  .39-  1.5+    190210 I41  .62+  3.4+    
190210 I41( .00   .00 )   190210 I41  3.8+  3.2-    190210 I41  2.3-  3.8-    
190210 I41( .00   .00 )   190210 I41  4.0+  1.8-    190210 I41  2.8-  2.3-    
190210 I41  3.2-  2.3-    190210 I41  1.2+  3.3+    
190210 I41  3.2-  2.0-    190210 I41  1.2+  3.4+    

Ephemerides (geocentric):
Date (UTC) HH   RA              Dec         delta   r     elong  mag
---- -- -- --  -------------   -----------  ------ ------ -----  ---
2019 02 15 23  07 40 43.617   -44 38 33.72  .03849 1.0047 115.1 23.0
2019 02 16 00  07 40 22.271   -44 44 36.80  .03875 1.0047 115.0 23.0
2019 02 16 01  07 40 01.148   -44 50 34.65  .03902 1.0048 114.8 23.0
2019 02 16 02  07 39 40.246   -44 56 27.35  .03928 1.0048 114.7 23.1
2019 02 16 03  07 39 19.561   -45 02 15.02  .03955 1.0049 114.6 23.1
2019 02 16 04  07 38 59.089   -45 07 57.75  .03981 1.0050 114.5 23.1
2019 02 16 05  07 38 38.829   -45 13 35.65  .04008 1.0050 114.4 23.1
2019 02 16 06  07 38 18.776   -45 19 08.81  .04034 1.0051 114.3 23.1
2019 02 16 07  07 37 58.928   -45 24 37.32  .04061 1.0051 114.1 23.1
2019 02 16 08  07 37 39.282   -45 30 01.27  .04087 1.0052 114.0 23.2
2019 02 16 09  07 37 19.835   -45 35 20.76  .04114 1.0052 113.9 23.2
2019 02 16 10  07 37 00.585   -45 40 35.87  .04140 1.0053 113.8 23.2
2019 02 16 11  07 36 41.528   -45 45 46.69  .04167 1.0053 113.7 23.2
2019 02 16 12  07 36 22.662   -45 50 53.29  .04193 1.0054 113.6 23.2
2019 02 16 13  07 36 03.984   -45 55 55.76  .04220 1.0054 113.5 23.2
2019 02 16 14  07 35 45.491   -46 00 54.17  .04247 1.0055 113.4 23.3
2019 02 16 15  07 35 27.182   -46 05 48.61  .04273 1.0056 113.3 23.3
2019 02 16 16  07 35 09.054   -46 10 39.14  .04300 1.0056 113.2 23.3
2019 02 16 17  07 34 51.103   -46 15 25.85  .04326 1.0057 113.1 23.3
2019 02 16 18  07 34 33.328   -46 20 08.79  .04353 1.0057 113.0 23.3
2019 02 16 19  07 34 15.727   -46 24 48.04  .04380 1.0058 112.9 23.3
2019 02 16 20  07 33 58.296   -46 29 23.67  .04406 1.0058 112.8 23.4
2019 02 16 21  07 33 41.034   -46 33 55.75  .04433 1.0059 112.7 23.4
2019 02 16 22  07 33 23.939   -46 38 24.33  .04460 1.0059 112.6 23.4
2019 02 16 23  07 33 07.008   -46 42 49.49  .04486 1.0060 112.5 23.4
2019 02 17 00  07 32 50.239   -46 47 11.28  .04513 1.0061 112.4 23.4
2019 02 17 01  07 32 33.629   -46 51 29.76  .04540 1.0061 112.3 23.4
2019 02 17 02  07 32 17.178   -46 55 45.00  .04566 1.0062 112.3 23.4
2019 02 17 03  07 32 00.882   -46 59 57.05  .04593 1.0062 112.2 23.5
2019 02 17 04  07 31 44.740   -47 04 05.96  .04620 1.0063 112.1 23.5
2019 02 17 05  07 31 28.750   -47 08 11.79  .04647 1.0063 112.0 23.5
2019 02 17 06  07 31 12.909   -47 12 14.60  .04673 1.0064 111.9 23.5
2019 02 17 07  07 30 57.216   -47 16 14.43  .04700 1.0064 111.8 23.5
2019 02 17 08  07 30 41.669   -47 20 11.35  .04727 1.0065 111.7 23.5
2019 02 17 09  07 30 26.267   -47 24 05.39  .04754 1.0066 111.7 23.6
2019 02 17 10  07 30 11.006   -47 27 56.61  .04780 1.0066 111.6 23.6
2019 02 17 11  07 29 55.886   -47 31 45.06  .04807 1.0067 111.5 23.6
2019 02 17 12  07 29 40.904   -47 35 30.78  .04834 1.0067 111.4 23.6
2019 02 17 13  07 29 26.059   -47 39 13.81  .04861 1.0068 111.3 23.6
2019 02 17 14  07 29 11.350   -47 42 54.21  .04887 1.0068 111.3 23.6
2019 02 17 15  07 28 56.774   -47 46 32.02  .04914 1.0069 111.2 23.6
2019 02 17 16  07 28 42.329   -47 50 07.28  .04941 1.0069 111.1 23.7
2019 02 17 17  07 28 28.015   -47 53 40.03  .04968 1.0070 111.0 23.7
2019 02 17 18  07 28 13.830   -47 57 10.31  .04995 1.0071 111.0 23.7
2019 02 17 19  07 27 59.771   -48 00 38.17  .05021 1.0071 110.9 23.7
2019 02 17 20  07 27 45.838   -48 04 03.64  .05048 1.0072 110.8 23.7
2019 02 17 21  07 27 32.029   -48 07 26.76  .05075 1.0072 110.7 23.7
2019 02 17 22  07 27 18.342   -48 10 47.57  .05102 1.0073 110.7 23.7